This demonstration page uses our WeatherBlox Daily Observations layout. Learn more.

Left ArrowRight Arrow

39.92423, -83.80882

Hourly Observations for March 15, 2019

Temp ( °F °C ) Dew Point ( °F °C ) Humidity (%) Winds ( mph kmh ) Pressure ( in mb ) Visibility ( mi km ) Precip ( " mm )
12:56 am 00:56 Clear 50 10 40 4.4 68 68 W 18 30 29.74 1007 10 16.0934 0 0
1:56 am 01:56 Clear 48 8.9 39 3.9 71 71 WSW 16 26 29.75 1007 10 16.0934 0 0
2:56 am 02:56 Clear 47 8.3 38 3.3 71 71 WSW 18 30 29.76 1008 10 16.0934 0 0
3:56 am 03:56 Clear 46 7.8 36 2.2 68 68 W 20 31 29.77 1008 10 16.0934 0 0
4:56 am 04:56 Clear 44 6.7 36 2.2 73 73 WSW 16 26 29.79 1009 10 16.0934 0 0
5:56 am 05:56 Clear 43 6.1 35 1.7 74 74 WSW 16 26 29.81 1010 10 16.0934 0 0
6:56 am 06:56 Cloudy 43 6.1 36 2.2 76 76 SW 17 28 29.83 1010 10 16.0934 0 0
7:56 am 07:56 Cloudy 43 6.1 35 1.7 74 74 WSW 16 26 29.85 1011 10 16.0934 0 0
8:56 am 08:56 Cloudy 43 6.1 36 2.2 76 76 SW 18 30 29.86 1011 10 16.0934 0 0
9:24 am 09:24 Cloudy 43 6 36 2 76 76 WSW 18 30 29.89 1012 10 16.0934 0 0
9:56 am 09:56 Cloudy 43 6.1 37 2.8 80 80 SW 17 28 29.88 1012 10 16.0934 0 0
10:56 am 10:56 Cloudy 44 6.7 36 2.2 73 73 SW 21 33 29.89 1012 10 16.0934 0 0
11:56 am 11:56 Cloudy 44 6.7 37 2.8 76 76 WSW 16 26 29.91 1013 10 16.0934 0 0.0254
12:56 pm 12:56 Cloudy with Light Rain 42 5.6 38 3.3 85 85 WSW 18 30 29.93 1014 10 16.0934 0 0.0254
1:56 pm 13:56 Cloudy with Light Rain 41 5 37 2.8 86 86 W 23 37 29.96 1014 10 16.0934 0.01 0.254
2:30 pm 14:30 Cloudy 43 6 37 3 81 81 W 21 33 29.97 1015 10 16.0934 0 0.0254
2:56 pm 14:56 Cloudy 43 6.1 36 2.2 76 76 W 24 39 29.96 1014 10 16.0934 0 0.0254
3:43 pm 15:43 Cloudy with Light Rain 39 4 36 2 87 87 W 23 37 29.99 1015 9 14.48406 0 0.0254
3:56 pm 15:56 Cloudy with Light Rain 40 4.4 35 1.7 83 83 W 28 44 29.98 1015 10 16.0934 0 0.0254
4:04 pm 16:04 Cloudy 39 4 36 2 87 87 W 31 50 30 1016 10 16.0934 0 0.0254
4:56 pm 16:56 Cloudy 39 3.9 34 1.1 82 82 W 22 35 30.02 1017 10 16.0934 0 0.0254
5:56 pm 17:56 Cloudy 39 3.9 34 1.1 82 82 W 22 35 30.04 1017 10 16.0934 0 0
6:56 pm 18:56 Cloudy 37 2.8 33 0.6 86 86 W 21 33 30.08 1019 10 16.0934 0 0
7:56 pm 19:56 Cloudy 36 2.2 32 0 86 86 W 15 24 30.11 1020 10 16.0934 0 0
8:56 pm 20:56 Cloudy 36 2.2 31 -0.6 82 82 W 21 33 30.14 1021 10 16.0934 0 0.0254
9:56 pm 21:56 Cloudy with Light Rain 35 1.7 29 -1.7 78 78 WNW 18 30 30.18 1022 9 14.48406 0 0.0254
10:56 pm 22:56 Cloudy 34 1.1 30 -1.1 85 85 W 21 33 30.2 1023 10 16.0934 0 0.0254

Powered by AerisWeather